カタログに戻る

CZ-6A DEB

運用中PO
NORAD 61127·DEBRIS·🇨🇳 China

打ち上げ Aug 6, 2024 から Taiyuan Satellite Launch Center

Loading…

次のパス (今後24時間)

TLE

最新Source: Space-Track

元期: Sep 14, 2026, 06:52 UTC

1 61127U 24140PV  26257.28664795  .00001541  00000-0  34956-3 0  9998
2 61127  89.0435 264.5882 0086433 327.8884  31.7076 14.53337989109317

AllMySatでCZ-6A DEBをリアルタイム追跡

Download on the App Store